QPF
0.00 0.00 0.00 0.00 0.00 0.00 0.00 0.00 0.00 0.00 0.00 0.00 0.00 0.01 0.01 0.02 0.03 0.04 0.04 0.05 0.07 0.08 0.09 0.11 0.13 0.15 0.20 0.25 0.24 0.22 0.18 0.12 0.06 0.03 0.02 0.01 0.01 0.01 0.01 0.01 0.02 0.02 0.02
0.00 0.00 0.00 0.00 0.00 0.00 0.00 0.00 0.00 0.00 0.00 0.00 0.00 0.00 0.01 0.01 0.02 0.03 0.04 0.06 0.08 0.10 0.11 0.11 0.11 0.12 0.15 0.20 0.25 0.24 0.22 0.20 0.14 0.06 0.03 0.01 0.00 0.00 0.00 0.01 0.01 0.01 0.02
0.00 0.00 0.00 0.00 0.00 0.00 0.00 0.00 0.00 0.00 0.00 0.00 0.00 0.00 0.01 0.01 0.01 0.02 0.04 0.06 0.09 0.12 0.13 0.13 0.13 0.11 0.11 0.14 0.20 0.29 0.24 0.24 0.22 0.14 0.07 0.02 0.01 0.00 0.00 0.01 0.01 0.01 0.01
0.00 0.00 0.00 0.00 0.00 0.00 0.00 0.00 0.00 0.00 0.00 0.00 0.00 0.00 0.00 0.01 0.01 0.01 0.03 0.05 0.09 0.11 0.13 0.15 0.15 0.13 0.11 0.10 0.13 0.24 0.29 0.27 0.26 0.23 0.15 0.07 0.02 0.01 0.00 0.00 0.00 0.01 0.01
0.00 0.00 0.00 0.00 0.00 0.00 0.00 0.00 0.00 0.00 0.00 0.00 0.00 0.00 0.00 0.00 0.00 0.01 0.02 0.04 0.08 0.12 0.13 0.16 0.17 0.13 0.11 0.08 0.08 0.14 0.25 0.29 0.29 0.28 0.23 0.16 0.09 0.04 0.01 0.00 0.00 0.01 0.01
0.00 0.00 0.00 0.00 0.00 0.00 0.00 0.00 0.00 0.00 0.00 0.00 0.00 0.00 0.00 0.00 0.00 0.00 0.01 0.03 0.05 0.09 0.15 0.18 0.19 0.16 0.11 0.08 0.06 0.07 0.13 0.22 0.29 0.28 0.29 0.25 0.18 0.11 0.04 0.01 0.00 0.00 0.01
0.00 0.00 0.00 0.00 0.00 0.00 0.00 0.00 0.00 0.00 0.00 0.00 0.00 0.00 0.00 0.00 0.00 0.00 0.00 0.01 0.02 0.05 0.09 0.16 0.21 0.21 0.16 0.10 0.06 0.05 0.06 0.11 0.21 0.27 0.28 0.28 0.25 0.18 0.10 0.05 0.02 0.01 0.00
0.00 0.00 0.00 0.00 0.00 0.00 0.00 0.00 0.00 0.01 0.01 0.00 0.01 0.01 0.01 0.00 0.00 0.00 0.00 0.00 0.01 0.02 0.05 0.09 0.16 0.22 0.20 0.14 0.07 0.04 0.03 0.05 0.10 0.20 0.25 0.27 0.30 0.25 0.16 0.09 0.04 0.02 0.01
0.00 0.00 0.00 0.00 0.00 0.00 0.00 0.00 0.00 0.01 0.01 0.00 0.01 0.03 0.05 0.03 0.01 0.00 0.00 0.00 0.00 0.01 0.03 0.05 0.08 0.14 0.17 0.16 0.10 0.04 0.03 0.03 0.05 0.12 0.20 0.26 0.30 0.31 0.24 0.14 0.08 0.05 0.03
0.00 0.00 0.00 0.00 0.00 0.00 0.00 0.00 0.00 0.00 0.01 0.02 0.01 0.02 0.03 0.03 0.03 0.02 0.00 0.00 0.00 0.00 0.02 0.03 0.04 0.07 0.10 0.11 0.09 0.05 0.03 0.03 0.04 0.07 0.14 0.21 0.26 0.29 0.30 0.23 0.13 0.07 0.04
0.00 0.00 0.00 0.00 0.00 0.00 0.00 0.00 0.00 0.00 0.01 0.02 0.03 0.03 0.02 0.02 0.02 0.03 0.01 0.00 0.00 0.00 0.00 0.01 0.03 0.04 0.05 0.06 0.06 0.06 0.04 0.04 0.06 0.07 0.10 0.16 0.22 0.25 0.25 0.26 0.20 0.14 0.08
0.00 0.00 0.00 0.00 0.00 0.00 0.00 0.00 0.00 0.00 0.01 0.01 0.02 0.03 0.04 0.04 0.04 0.04 0.03 0.01 0.00 0.00 0.00 0.00 0.01 0.03 0.04 0.04 0.04 0.04 0.04 0.04 0.05 0.06 0.06 0.10 0.18 0.24 0.26 0.26 0.25 0.18 0.13
0.00 0.00 0.00 0.00 0.00 0.00 0.00 0.00 0.00 0.00 0.01 0.01 0.02 0.02 0.02 0.03 0.03 0.04 0.04 0.02 0.00 0.00 0.00 0.00 0.00 0.02 0.03 0.04 0.04 0.04 0.04 0.04 0.03 0.04 0.04 0.05 0.08 0.16 0.26 0.32 0.33 0.27 0.18
0.00 0.00 0.00 0.00 0.00 0.00 0.00 0.00 0.00 0.00 0.01 0.01 0.01 0.01 0.02 0.02 0.02 0.03 0.05 0.05 0.03 0.01 0.00 0.00 0.00 0.01 0.02 0.04 0.05 0.04 0.04 0.04 0.03 0.04 0.04 0.05 0.05 0.08 0.13 0.24 0.36 0.38 0.33
0.00 0.00 0.00 0.00 0.00 0.00 0.00 0.00 0.00 0.00 0.00 0.01 0.01 0.01 0.02 0.02 0.02 0.03 0.05 0.06 0.06 0.03 0.01 0.00 0.02 0.03 0.03 0.03 0.04 0.04 0.03 0.03 0.03 0.03 0.03 0.04 0.05 0.05 0.07 0.11 0.20 0.33 0.41
0.00 0.00 0.00 0.00 0.00 0.00 0.00 0.00 0.00 0.00 0.00 0.01 0.01 0.01 0.01 0.01 0.01 0.02 0.03 0.04 0.05 0.05 0.03 0.01 0.01 0.04 0.05 0.04 0.04 0.03 0.03 0.03 0.02 0.02 0.02 0.02 0.03 0.04 0.05 0.07 0.09 0.15 0.26
0.00 0.00 0.00 0.00 0.00 0.00 0.00 0.00 0.00 0.00 0.00 0.01 0.01 0.01 0.01 0.01 0.01 0.01 0.02 0.04 0.05 0.05 0.04 0.01 0.00 0.02 0.05 0.06 0.05 0.04 0.03 0.03 0.02 0.02 0.01 0.01 0.01 0.02 0.03 0.05 0.07 0.09 0.15
0.00 0.00 0.00 0.00 0.00 0.00 0.00 0.00 0.00 0.00 0.01 0.01 0.02 0.01 0.01 0.01 0.02 0.02 0.03 0.04 0.05 0.05 0.05 0.03 0.01 0.01 0.02 0.04 0.05 0.05 0.04 0.03 0.02 0.01 0.01 0.00 0.00 0.00 0.01 0.02 0.05 0.06 0.11
0.00 0.00 0.00 0.00 0.00 0.00 0.00 0.00 0.00 0.01 0.01 0.02 0.02 0.02 0.01 0.02 0.02 0.03 0.04 0.04 0.04 0.05 0.05 0.04 0.01 0.00 0.01 0.01 0.03 0.05 0.05 0.03 0.02 0.01 0.01 0.01 0.00 0.00 0.00 0.01 0.03 0.05 0.06
0.00 0.00 0.00 0.00 0.00 0.00 0.00 0.01 0.02 0.03 0.02 0.01 0.02 0.02 0.02 0.02 0.03 0.05 0.07 0.07 0.05 0.04 0.04 0.04 0.02 0.01 0.00 0.01 0.02 0.03 0.04 0.03 0.02 0.01 0.01 0.00 0.00 0.00 0.00 0.00 0.01 0.03 0.07
0.00 0.00 0.00 0.00 0.00 0.01 0.03 0.06 0.10 0.09 0.04 0.03 0.02 0.02 0.02 0.03 0.05 0.08 0.12 0.11 0.06 0.04 0.04 0.04 0.03 0.02 0.01 0.01 0.01 0.02 0.03 0.03 0.03 0.02 0.01 0.01 0.00 0.00 0.00 0.01 0.01 0.03 0.05
0.00 0.00 0.00 0.00 0.01 0.03 0.10 0.19 0.20 0.15 0.06 0.04 0.02 0.01 0.02 0.03 0.04 0.04 0.07 0.09 0.07 0.09 0.07 0.05 0.04 0.03 0.02 0.01 0.01 0.02 0.03 0.03 0.03 0.02 0.02 0.01 0.01 0.01 0.01 0.01 0.02 0.03 0.04
0.00 0.00 0.00 0.00 0.01 0.04 0.15 0.23 0.20 0.10 0.04 0.04 0.03 0.03 0.03 0.04 0.04 0.02 0.04 0.04 0.07 0.08 0.09 0.08 0.08 0.07 0.05 0.02 0.01 0.02 0.03 0.03 0.03 0.03 0.03 0.03 0.04 0.03 0.03 0.03 0.05 0.05 0.05
0.00 0.00 0.00 0.00 0.01 0.03 0.16 0.22 0.14 0.04 0.04 0.06 0.07 0.08 0.06 0.07 0.06 0.03 0.03 0.04 0.05 0.06 0.07 0.07 0.08 0.08 0.06 0.04 0.02 0.03 0.04 0.04 0.05 0.06 0.07 0.06 0.09 0.10 0.10 0.09 0.11 0.10 0.10
0.00 0.00 0.00 0.00 0.01 0.02 0.12 0.21 0.10 0.03 0.03 0.05 0.08 0.11 0.11 0.08 0.06 0.02 0.02 0.04 0.04 0.04 0.04 0.05 0.05 0.05 0.04 0.03 0.04 0.04 0.06 0.07 0.09 0.11 0.11 0.09 0.12 0.15 0.18 0.20 0.22 0.21 0.18
0.00 0.00 0.00 0.00 0.01 0.01 0.06 0.15 0.10 0.02 0.02 0.02 0.03 0.05 0.09 0.07 0.05 0.02 0.01 0.03 0.03 0.04 0.03 0.03 0.03 0.03 0.03 0.03 0.05 0.07 0.09 0.11 0.13 0.15 0.17 0.13 0.13 0.14 0.22 0.27 0.25 0.23 0.22
MSLP
1027.40 1026.68 1025.89 1025.07 1024.25 1023.47 1022.73 1022.03 1021.36 1020.67 1019.93 1019.13 1018.26 1017.33 1016.36 1015.41 1014.49 1013.65 1012.90 1012.24 1011.68 1011.21 1010.83 1010.55 1010.37 1010.30 1010.36 1010.54 1010.83 1011.20 1011.64 1012.11 1012.59 1013.06 1013.51 1013.94 1014.35 1014.75 1015.15 1015.54 1015.92 1016.29 1016.65
1027.75 1026.98 1026.15 1025.29 1024.46 1023.68 1022.95 1022.27 1021.61 1020.94 1020.20 1019.39 1018.49 1017.53 1016.52 1015.51 1014.54 1013.64 1012.83 1012.12 1011.51 1010.99 1010.57 1010.24 1010.02 1009.91 1009.91 1010.04 1010.28 1010.61 1011.03 1011.49 1011.97 1012.47 1012.95 1013.42 1013.87 1014.31 1014.73 1015.13 1015.51 1015.88 1016.23
1028.07 1027.27 1026.42 1025.56 1024.72 1023.95 1023.24 1022.57 1021.92 1021.23 1020.47 1019.61 1018.66 1017.64 1016.56 1015.49 1014.45 1013.50 1012.64 1011.89 1011.25 1010.72 1010.28 1009.93 1009.69 1009.55 1009.52 1009.61 1009.80 1010.09 1010.47 1010.91 1011.38 1011.88 1012.39 1012.88 1013.37 1013.83 1014.28 1014.69 1015.08 1015.45 1015.81
1028.38 1027.57 1026.72 1025.87 1025.07 1024.32 1023.62 1022.95 1022.28 1021.55 1020.73 1019.81 1018.78 1017.67 1016.52 1015.37 1014.27 1013.27 1012.37 1011.60 1010.95 1010.41 1009.97 1009.63 1009.38 1009.23 1009.18 1009.24 1009.40 1009.65 1009.99 1010.39 1010.84 1011.33 1011.83 1012.34 1012.85 1013.33 1013.80 1014.23 1014.65 1015.04 1015.42
1028.65 1027.86 1027.04 1026.23 1025.47 1024.75 1024.07 1023.40 1022.68 1021.90 1021.00 1019.99 1018.86 1017.66 1016.43 1015.22 1014.07 1013.03 1012.11 1011.32 1010.66 1010.12 1009.69 1009.35 1009.11 1008.96 1008.90 1008.93 1009.06 1009.27 1009.56 1009.92 1010.34 1010.81 1011.30 1011.81 1012.32 1012.82 1013.31 1013.77 1014.21 1014.63 1015.03
1028.88 1028.11 1027.34 1026.59 1025.88 1025.20 1024.54 1023.86 1023.11 1022.25 1021.28 1020.17 1018.96 1017.69 1016.40 1015.13 1013.95 1012.88 1011.95 1011.15 1010.49 1009.94 1009.51 1009.16 1008.91 1008.75 1008.66 1008.67 1008.76 1008.92 1009.17 1009.48 1009.86 1010.30 1010.77 1011.27 1011.78 1012.30 1012.80 1013.30 1013.76 1014.22 1014.66
1029.01 1028.28 1027.57 1026.89 1026.25 1025.62 1024.98 1024.29 1023.50 1022.59 1021.55 1020.38 1019.12 1017.80 1016.48 1015.20 1014.01 1012.94 1012.00 1011.19 1010.51 1009.94 1009.47 1009.09 1008.80 1008.59 1008.47 1008.43 1008.46 1008.58 1008.77 1009.04 1009.38 1009.77 1010.22 1010.71 1011.22 1011.75 1012.28 1012.80 1013.31 1013.80 1014.28
1029.05 1028.36 1027.71 1027.10 1026.52 1025.94 1025.33 1024.64 1023.84 1022.90 1021.83 1020.63 1019.36 1018.05 1016.74 1015.49 1014.32 1013.27 1012.32 1011.49 1010.77 1010.14 1009.60 1009.15 1008.78 1008.50 1008.30 1008.19 1008.16 1008.21 1008.35 1008.56 1008.85 1009.21 1009.63 1010.11 1010.63 1011.17 1011.72 1012.28 1012.82 1013.35 1013.87
1029.01 1028.35 1027.75 1027.20 1026.68 1026.15 1025.56 1024.89 1024.09 1023.15 1022.09 1020.92 1019.69 1018.44 1017.20 1016.01 1014.90 1013.87 1012.92 1012.05 1011.26 1010.54 1009.90 1009.33 1008.85 1008.45 1008.15 1007.94 1007.83 1007.81 1007.88 1008.04 1008.28 1008.61 1009.00 1009.47 1009.99 1010.55 1011.12 1011.71 1012.29 1012.86 1013.41
1028.91 1028.28 1027.72 1027.22 1026.73 1026.24 1025.68 1025.02 1024.24 1023.33 1022.32 1021.22 1020.08 1018.93 1017.79 1016.70 1015.66 1014.66 1013.71 1012.79 1011.92 1011.08 1010.31 1009.59 1008.97 1008.44 1008.02 1007.71 1007.50 1007.40 1007.40 1007.50 1007.69 1007.98 1008.35 1008.81 1009.33 1009.90 1010.50 1011.11 1011.72 1012.32 1012.91
1028.82 1028.19 1027.65 1027.17 1026.71 1026.23 1025.68 1025.03 1024.28 1023.42 1022.48 1021.48 1020.46 1019.43 1018.43 1017.45 1016.48 1015.52 1014.55 1013.59 1012.62 1011.66 1010.75 1009.89 1009.12 1008.47 1007.92 1007.51 1007.21 1007.03 1006.96 1006.99 1007.14 1007.38 1007.73 1008.16 1008.67 1009.25 1009.86 1010.50 1011.14 1011.77 1012.38
1028.76 1028.14 1027.60 1027.11 1026.64 1026.15 1025.59 1024.94 1024.21 1023.40 1022.54 1021.65 1020.75 1019.86 1018.99 1018.11 1017.21 1016.28 1015.31 1014.29 1013.23 1012.17 1011.14 1010.16 1009.28 1008.52 1007.88 1007.38 1007.01 1006.76 1006.62 1006.59 1006.68 1006.88 1007.18 1007.58 1008.08 1008.64 1009.27 1009.91 1010.57 1011.22 1011.86
1028.75 1028.12 1027.56 1027.05 1026.54 1026.00 1025.40 1024.74 1024.02 1023.24 1022.45 1021.66 1020.88 1020.11 1019.35 1018.56 1017.73 1016.83 1015.84 1014.78 1013.67 1012.53 1011.42 1010.38 1009.43 1008.61 1007.92 1007.37 1006.95 1006.65 1006.45 1006.36 1006.39 1006.52 1006.77 1007.12 1007.59 1008.13 1008.74 1009.39 1010.05 1010.71 1011.36
1028.79 1028.14 1027.54 1026.97 1026.39 1025.78 1025.12 1024.42 1023.68 1022.92 1022.18 1021.46 1020.78 1020.11 1019.44 1018.72 1017.94 1017.05 1016.07 1014.99 1013.85 1012.70 1011.57 1010.51 1009.57 1008.75 1008.07 1007.51 1007.07 1006.73 1006.48 1006.33 1006.28 1006.34 1006.52 1006.82 1007.23 1007.74 1008.32 1008.95 1009.61 1010.26 1010.91
1028.82 1028.14 1027.49 1026.84 1026.17 1025.47 1024.72 1023.96 1023.18 1022.43 1021.72 1021.05 1020.44 1019.84 1019.23 1018.57 1017.82 1016.95 1015.98 1014.91 1013.79 1012.67 1011.58 1010.58 1009.69 1008.94 1008.31 1007.78 1007.35 1006.99 1006.71 1006.49 1006.37 1006.34 1006.44 1006.66 1007.01 1007.46 1008.01 1008.61 1009.24 1009.88 1010.52
1028.80 1028.09 1027.37 1026.62 1025.85 1025.03 1024.19 1023.35 1022.53 1021.76 1021.07 1020.44 1019.88 1019.33 1018.77 1018.14 1017.42 1016.58 1015.63 1014.60 1013.54 1012.48 1011.49 1010.60 1009.83 1009.18 1008.63 1008.17 1007.76 1007.40 1007.08 1006.80 1006.59 1006.48 1006.48 1006.62 1006.90 1007.29 1007.79 1008.35 1008.95 1009.55 1010.16
1028.71 1027.94 1027.14 1026.29 1025.40 1024.47 1023.54 1022.62 1021.75 1020.97 1020.29 1019.69 1019.17 1018.66 1018.13 1017.54 1016.84 1016.03 1015.13 1014.16 1013.18 1012.23 1011.36 1010.61 1009.97 1009.44 1009.00 1008.61 1008.23 1007.87 1007.50 1007.16 1006.87 1006.67 1006.59 1006.64 1006.85 1007.18 1007.62 1008.14 1008.69 1009.25 1009.81
1028.53 1027.70 1026.81 1025.87 1024.86 1023.83 1022.79 1021.81 1020.91 1020.12 1019.46 1018.90 1018.41 1017.94 1017.45 1016.89 1016.23 1015.46 1014.60 1013.71 1012.82 1011.98 1011.25 1010.63 1010.13 1009.72 1009.37 1009.04 1008.69 1008.31 1007.91 1007.50 1007.13 1006.85 1006.68 1006.67 1006.81 1007.08 1007.47 1007.94 1008.44 1008.94 1009.44
1028.30 1027.41 1026.44 1025.40 1024.29 1023.16 1022.05 1021.02 1020.09 1019.31 1018.67 1018.15 1017.71 1017.29 1016.84 1016.31 1015.69 1014.96 1014.16 1013.34 1012.54 1011.82 1011.20 1010.70 1010.32 1010.00 1009.72 1009.42 1009.07 1008.67 1008.22 1007.75 1007.31 1006.95 1006.72 1006.65 1006.74 1006.97 1007.31 1007.73 1008.18 1008.63 1009.06
1028.09 1027.15 1026.10 1024.96 1023.77 1022.57 1021.40 1020.34 1019.41 1018.64 1018.03 1017.56 1017.16 1016.79 1016.39 1015.90 1015.32 1014.64 1013.90 1013.14 1012.42 1011.78 1011.26 1010.84 1010.53 1010.27 1010.02 1009.73 1009.36 1008.92 1008.42 1007.88 1007.39 1006.98 1006.70 1006.58 1006.63 1006.83 1007.14 1007.52 1007.92 1008.32 1008.69
1027.98 1026.99 1025.88 1024.68 1023.42 1022.16 1020.96 1019.87 1018.94 1018.20 1017.63 1017.20 1016.85 1016.52 1016.16 1015.72 1015.17 1014.54 1013.84 1013.14 1012.48 1011.91 1011.44 1011.08 1010.80 1010.55 1010.30 1009.98 1009.58 1009.09 1008.53 1007.94 1007.39 1006.94 1006.63 1006.49 1006.52 1006.71 1006.99 1007.35 1007.71 1008.06 1008.38
1028.02 1026.99 1025.85 1024.60 1023.30 1022.01 1020.79 1019.70 1018.78 1018.06 1017.52 1017.12 1016.81 1016.52 1016.19 1015.78 1015.27 1014.67 1014.02 1013.35 1012.73 1012.20 1011.76 1011.41 1011.14 1010.88 1010.59 1010.23 1009.77 1009.22 1008.60 1007.97 1007.38 1006.90 1006.57 1006.42 1006.45 1006.63 1006.91 1007.25 1007.59 1007.91 1008.20
1028.23 1027.20 1026.04 1024.78 1023.47 1022.17 1020.94 1019.86 1018.96 1018.25 1017.73 1017.35 1017.06 1016.79 1016.48 1016.08 1015.60 1015.02 1014.40 1013.76 1013.17 1012.65 1012.22 1011.87 1011.57 1011.28 1010.94 1010.52 1010.00 1009.39 1008.72 1008.04 1007.42 1006.91 1006.58 1006.43 1006.46 1006.65 1006.94 1007.28 1007.63 1007.95 1008.23
1028.59 1027.58 1026.44 1025.20 1023.90 1022.62 1021.41 1020.35 1019.46 1018.76 1018.25 1017.88 1017.59 1017.31 1017.00 1016.61 1016.13 1015.57 1014.96 1014.35 1013.77 1013.26 1012.82 1012.45 1012.12 1011.78 1011.39 1010.91 1010.33 1009.66 1008.94 1008.21 1007.56 1007.04 1006.70 1006.55 1006.59 1006.80 1007.12 1007.49 1007.87 1008.22 1008.54
1029.02 1028.06 1026.97 1025.78 1024.53 1023.30 1022.13 1021.09 1020.22 1019.54 1019.03 1018.65 1018.34 1018.05 1017.72 1017.32 1016.84 1016.29 1015.69 1015.08 1014.51 1014.00 1013.55 1013.16 1012.79 1012.41 1011.96 1011.42 1010.78 1010.06 1009.28 1008.52 1007.84 1007.30 1006.95 1006.80 1006.86 1007.09 1007.45 1007.88 1008.32 1008.74 1009.13
1029.43 1028.55 1027.53 1026.42 1025.25 1024.08 1022.98 1021.99 1021.16 1020.50 1019.99 1019.59 1019.27 1018.95 1018.60 1018.19 1017.69 1017.13 1016.54 1015.94 1015.37 1014.85 1014.39 1013.98 1013.58 1013.15 1012.65 1012.05 1011.36 1010.58 1009.76 1008.96 1008.24 1007.68 1007.31 1007.17 1007.24 1007.51 1007.91 1008.41 1008.95 1009.47 1009.97
Thickness
5427 5427 5428 5431 5437 5443 5450 5460 5470 5483 5495 5508 5521 5536 5550 5563 5578 5592 5605 5618 5630 5642 5653 5663 5670 5674 5678 5683 5686 5688 5689 5690 5692 5694 5695 5696 5696 5697 5698 5699 5700 5701 5701
5393 5394 5397 5400 5405 5411 5418 5427 5439 5452 5466 5480 5496 5511 5527 5542 5559 5574 5588 5602 5616 5628 5640 5652 5660 5666 5671 5676 5680 5682 5684 5686 5686 5688 5690 5692 5693 5693 5694 5695 5696 5697 5698
5365 5366 5368 5372 5376 5382 5389 5398 5410 5422 5437 5452 5469 5485 5504 5522 5538 5555 5570 5585 5599 5613 5626 5637 5648 5655 5662 5667 5672 5676 5679 5681 5682 5683 5685 5687 5689 5689 5690 5691 5692 5694 5695
5341 5342 5344 5347 5351 5357 5363 5372 5383 5395 5408 5424 5442 5460 5479 5499 5518 5535 5551 5567 5582 5596 5610 5622 5633 5642 5650 5657 5664 5669 5672 5675 5677 5678 5680 5682 5684 5686 5687 5688 5689 5690 5691
5320 5320 5322 5324 5328 5333 5340 5348 5359 5369 5383 5398 5416 5436 5455 5475 5495 5514 5531 5548 5564 5579 5593 5606 5617 5628 5637 5645 5653 5660 5665 5668 5671 5673 5675 5677 5679 5681 5683 5684 5685 5686 5687
5301 5301 5303 5303 5306 5311 5318 5326 5336 5347 5359 5374 5391 5412 5432 5453 5473 5491 5509 5528 5545 5561 5576 5590 5602 5613 5623 5633 5641 5649 5656 5661 5665 5668 5671 5672 5674 5676 5678 5679 5680 5681 5682
5284 5283 5282 5284 5286 5290 5296 5304 5314 5327 5338 5352 5369 5390 5414 5433 5452 5469 5486 5504 5523 5539 5556 5572 5586 5597 5608 5619 5628 5637 5645 5652 5657 5662 5665 5668 5669 5671 5673 5674 5675 5675 5676
5267 5266 5265 5267 5269 5272 5277 5283 5293 5305 5317 5328 5343 5364 5389 5410 5428 5446 5461 5481 5499 5515 5532 5550 5566 5580 5592 5604 5615 5625 5633 5641 5649 5654 5659 5662 5665 5667 5668 5669 5670 5670 5671
5254 5252 5251 5252 5253 5256 5260 5265 5274 5283 5295 5308 5320 5334 5355 5376 5394 5421 5437 5456 5473 5491 5509 5528 5545 5560 5574 5589 5600 5611 5621 5630 5638 5646 5653 5657 5661 5662 5664 5665 5666 5666 5666
5242 5240 5239 5239 5240 5242 5245 5250 5257 5264 5275 5288 5300 5313 5325 5340 5361 5388 5412 5430 5448 5468 5487 5506 5524 5541 5556 5571 5585 5598 5609 5619 5628 5636 5644 5650 5654 5658 5660 5660 5661 5661 5662
5232 5230 5229 5228 5229 5230 5233 5237 5242 5248 5257 5268 5281 5294 5309 5324 5338 5356 5382 5405 5425 5445 5465 5485 5505 5523 5539 5554 5570 5583 5596 5608 5617 5626 5634 5641 5647 5651 5654 5655 5656 5657 5658
5226 5223 5221 5220 5220 5220 5222 5226 5230 5235 5242 5252 5263 5276 5290 5305 5320 5335 5355 5376 5398 5422 5443 5466 5487 5505 5521 5537 5554 5568 5582 5595 5606 5615 5624 5632 5639 5644 5649 5651 5653 5653 5653
5219 5216 5214 5212 5211 5211 5213 5215 5218 5223 5230 5238 5247 5260 5273 5287 5302 5317 5334 5354 5374 5398 5422 5446 5467 5485 5502 5518 5535 5552 5569 5583 5595 5605 5614 5622 5630 5636 5641 5646 5648 5649 5649
5209 5207 5204 5202 5201 5201 5202 5204 5207 5211 5218 5225 5235 5245 5258 5273 5287 5301 5317 5334 5355 5378 5401 5424 5446 5466 5483 5499 5517 5535 5553 5568 5582 5593 5603 5611 5619 5627 5634 5639 5642 5644 5646
5197 5194 5191 5189 5188 5188 5189 5192 5196 5201 5207 5214 5223 5233 5245 5260 5274 5288 5302 5317 5335 5358 5381 5404 5425 5445 5462 5482 5499 5517 5535 5552 5567 5581 5591 5600 5608 5617 5624 5631 5636 5638 5640
5183 5179 5175 5173 5171 5172 5174 5177 5182 5189 5195 5203 5212 5222 5234 5247 5261 5275 5290 5305 5321 5338 5360 5385 5403 5423 5443 5464 5482 5500 5518 5536 5553 5567 5579 5588 5597 5606 5614 5621 5627 5631 5634
5169 5163 5157 5153 5151 5152 5155 5160 5167 5176 5184 5193 5201 5212 5223 5235 5249 5263 5278 5294 5310 5326 5347 5368 5385 5406 5427 5447 5466 5485 5502 5520 5538 5554 5566 5577 5586 5594 5603 5610 5617 5622 5626
5154 5145 5136 5131 5129 5130 5134 5141 5151 5162 5172 5182 5192 5202 5213 5226 5239 5253 5268 5284 5300 5316 5334 5353 5370 5390 5412 5431 5450 5469 5487 5505 5523 5540 5554 5566 5575 5583 5591 5599 5607 5613 5618
5140 5128 5118 5112 5110 5112 5117 5126 5136 5149 5162 5173 5183 5193 5204 5216 5229 5243 5258 5274 5290 5307 5323 5340 5357 5375 5396 5416 5435 5454 5473 5492 5510 5527 5541 5553 5564 5572 5581 5589 5597 5604 5610
5127 5115 5105 5100 5099 5101 5108 5116 5128 5140 5153 5165 5176 5186 5196 5207 5220 5234 5251 5266 5281 5298 5313 5329 5345 5361 5380 5401 5421 5439 5458 5477 5495 5512 5527 5540 5552 5561 5570 5579 5588 5595 5600
5118 5106 5098 5094 5094 5099 5107 5116 5125 5136 5147 5158 5169 5179 5189 5201 5215 5228 5243 5257 5272 5287 5302 5317 5332 5347 5364 5383 5404 5422 5442 5461 5479 5497 5512 5527 5540 5551 5558 5568 5576 5584 5591
5114 5102 5095 5093 5094 5100 5112 5122 5127 5133 5141 5151 5161 5173 5184 5195 5206 5219 5233 5247 5261 5275 5290 5305 5318 5331 5345 5363 5385 5404 5424 5445 5466 5486 5499 5511 5523 5535 5546 5556 5567 5575 5582
5113 5102 5095 5094 5096 5102 5114 5121 5125 5128 5135 5144 5155 5166 5178 5189 5198 5209 5221 5235 5248 5263 5278 5290 5302 5315 5329 5347 5369 5392 5410 5429 5449 5467 5482 5496 5508 5520 5532 5544 5555 5564 5572
5114 5103 5097 5095 5097 5102 5113 5119 5121 5124 5131 5140 5150 5161 5171 5181 5192 5201 5212 5224 5237 5250 5265 5278 5290 5303 5316 5333 5351 5371 5392 5412 5433 5450 5466 5481 5493 5504 5516 5528 5541 5552 5561
5118 5107 5100 5097 5098 5102 5111 5117 5119 5121 5127 5135 5144 5155 5165 5174 5186 5195 5204 5216 5229 5241 5254 5268 5281 5293 5306 5323 5340 5358 5379 5402 5422 5436 5450 5466 5476 5485 5495 5508 5522 5535 5545
5122 5113 5105 5101 5100 5103 5110 5116 5118 5120 5124 5131 5139 5148 5158 5168 5178 5187 5196 5208 5221 5231 5245 5258 5271 5284 5296 5309 5326 5342 5361 5384 5406 5422 5435 5451 5461 5471 5475 5483 5498 5512 5523